Monte Cimone, Italy

7:47 AM CEST on April 23, 2017 (GMT +0200)
Monte Cimone

Weather History for LIVC - February, 2013

Change the Weather History Date:

Monday, February 18, 2013

  Actual Average Record
Temperature  
Mean Temperature 16 °F -  
Max Temperature 19 °F 29 °F 37 °F (2008)
Min Temperature 12 °F 21 °F 3 °F (2003)
Degree Days  
Heating Degree Days 50    
Moisture  
Dew Point 13 °F    
Average Humidity 84    
Maximum Humidity 93    
Minimum Humidity 79    
Precipitation  
Precipitation 0.00 in 0.06 in - ()
Sea Level Pressure  
Sea Level Pressure 29.78 in    
Wind  
Wind Speed 14 mph ()    
Max Wind Speed 21 mph    
Max Gust Speed -    
Visibility 1.0 miles    
Events Fog    
Averages and records for this station are not official NWS values.
T = Trace of Precipitation, MM = Missing Value Source: Averaged Metar Reports

Daily Weather History Graph

Daily Weather History Graph

Search for Another Location

Airport or City:

Trip Planner

Search our weather history database for the weather conditions in past years. The results will help you decide how hot, cold, wet, or windy it might be!

Date:

Astronomy

Feb. 18, 2013 Rise Set
Actual Time 7:12 AM CET 5:50 PM CET
Civil Twilight 6:42 AM CET 6:20 PM CET
Nautical Twilight 6:08 AM CET 6:54 PM CET
Astronomical Twilight 5:35 AM CET 7:27 PM CET
Moon 11:18 AM CET (2/18) 1:42 AM CET (2/18)
Length of Visible Light 11h 37m
Length of Day
10h 38m
First Quarter, 56% of the Moon is Illuminated
Feb 18
First Quarter
Feb 25
Full
Mar 4
Last Quarter
Mar 11
New
Mar 19
First Quarter

Hourly Weather History & Observations

Time (CET) Temp. Windchill Dew Point Humidity Pressure Visibility Wind Dir Wind Speed Gust Speed Precip Events Conditions
12:55 AM 15.8 °F 0.3 °F 12.2 °F 86% 29.80 in 0.0 mi NNE 16.1 mph - N/A Fog Light Freezing Fog
1:00 AM 16 °F - 12 °F 79%  in 0 mi NNE 16.1 mph - - Fog Heavy Fog
1:55 AM 17.6 °F 2.7 °F 14.0 °F 86% 29.80 in 0.0 mi NNE 16.1 mph - N/A Fog Light Freezing Fog
2:55 AM 15.8 °F -0.2 °F 12.2 °F 86% 29.77 in 0.0 mi NNE 17.3 mph - N/A Fog Light Freezing Fog
3:55 AM 15.8 °F -0.2 °F 12.2 °F 86% 29.77 in 0.0 mi NNE 17.3 mph - N/A Fog Light Freezing Fog
4:55 AM 17.6 °F 2.2 °F 14.0 °F 86% 29.77 in 0.0 mi NNE 17.3 mph - N/A Fog Light Freezing Fog
5:55 AM 19.4 °F 5.0 °F 15.8 °F 86% 29.74 in 0.0 mi NNE 16.1 mph - N/A Fog Light Freezing Fog
6:55 AM 19.4 °F 3.2 °F 15.8 °F 86% 29.74 in 0.0 mi NNE 20.7 mph - N/A Fog Light Freezing Fog
7:00 AM 19 °F - 15 °F 79%  in 0 mi NNE 20.7 mph - - Fog Heavy Fog
7:55 AM 15.8 °F -0.6 °F 12.2 °F 86% 29.77 in 0.0 mi NNE 18.4 mph - N/A Fog Light Freezing Fog
8:55 AM 17.6 °F 2.7 °F 14.0 °F 86% 29.77 in 0.0 mi NNE 16.1 mph - N/A Fog Light Freezing Fog
9:55 AM 17.6 °F 4.3 °F 14.0 °F 86% 29.77 in 0.0 mi NNE 12.7 mph - N/A Fog Light Freezing Fog
10:55 AM 15.8 °F 4.2 °F 14.0 °F 93% 29.77 in 0.0 mi North 9.2 mph - N/A Fog Light Freezing Fog
11:55 AM 17.6 °F 3.7 °F 14.0 °F 86% 29.80 in 0.0 mi North 13.8 mph - N/A Fog Light Freezing Fog
12:55 PM 17.6 °F 8.2 °F 14.0 °F 86% 29.80 in 0.0 mi North 6.9 mph - N/A Fog Light Freezing Fog
1:00 PM 17 °F - 14 °F 82%  in 0 mi North 6.9 mph - - Fog Heavy Fog
1:55 PM 17.6 °F 4.3 °F 14.0 °F 86% 29.77 in 0.0 mi North 12.7 mph - N/A Fog Light Freezing Fog
2:55 PM 19.4 °F 6.6 °F 15.8 °F 86% 29.77 in 0.0 mi NNE 12.7 mph - N/A Fog Light Freezing Fog
3:55 PM 17.6 °F 5.0 °F 14.0 °F 86% 29.77 in 0.1 mi NNE 11.5 mph - N/A Fog Light Freezing Fog
4:55 PM 17.6 °F 3.7 °F 14.0 °F 86% 29.77 in - NNE 13.8 mph - N/A   Clear
5:55 PM 15.8 °F 0.9 °F 12.2 °F 86% 29.74 in - North 15.0 mph - N/A   Clear
7:00 PM 15 °F - 12 °F 82%  in 19 mi North 15.0 mph - -   Partly Cloudy
7:55 PM 15.8 °F 0.3 °F 12.2 °F 86% 29.77 in - North 16.1 mph - N/A   Clear
8:55 PM 15.8 °F -0.6 °F 10.4 °F 79% 29.77 in - North 18.4 mph - N/A   Clear
9:55 PM 14.0 °F -2.0 °F 8.6 °F 79% 29.80 in - North 16.1 mph - N/A   Clear
10:55 PM 12.2 °F -3.1 °F 6.8 °F 79% 29.80 in - North 13.8 mph - N/A   Clear
11:55 PM 14.0 °F 1.2 °F 8.6 °F 79% 29.83 in - North 10.4 mph - N/A   Clear